STARLINK-11136, 60407

Orbit data source: Space-Track

STARLINK-11136, 60407 is a payload satellite owned by SpaceX/Seattle (US) in LEO that was launched on Sat, 10 Aug 2024 UTC via an FALCON 9 launch vehicle from the Air Force Eastern Test Range (AFETR). Payload-class satellites include a variety of spacecraft equipped with specific instruments for various scientific and technological missions. These include communications satellites like Starlink; space stations such as the ISS; scientific satellites like the Hubble; Earth observation satellites from companies like Planet Labs, Umbra, and HawkEye 360; GPS; miniature CubeSats for education and research; and military/defense satellites.

Loading next visibility...
Identifier
60407, 2024-141K
Orbit
LEO
Last TLE update
21 hours ago
Origin
Manufacturer
SpaceX/Seattle
Mission
Operational Commercial Communications
Bus & Motor
STARLINK V2M, Unknown motor
Mass
730 kg wet, ~700 kg dry
Launch date (UTC)
2024-08-10 (11 months ago)
Launch vehicle
FALCON 9
Launch site
Air Force Eastern Test Range (AFETR)
Object type
Payload
Rocket body
Debris
Shape & HBR
Box + 2 Pan, 29 m
Radar Cross Section
36.964 m², Large (>1 m²)

Expand to show TLE details & history

TLE from 21 hours ago
0 STARLINK-11136
1 60407U 24141K   25186.28654556 -.00001061  00000-0 -38981-5 0  9996
2 60407  53.1602 225.9987 0001332  94.3151 265.8019 15.69698485 52830
Epoch: 2025-07-05T06:52Z
TLE epoch observation values (Epoch: 2025-07-05T06:52:37.536Z)
Latitude
-0.00003°
Longitude
-160.68449°
Altitude
360.741 km
Speed
7.694 km/s
True Right ascension
15h 03m 59s
True Declination
0° 00' 00"
Sunlit
Object was in full shadow at epoch
Visualization orbit readout
Latitude
-11.68309°
Longitude
23.92627°
Altitude
363.035 km
Speed
7.692 km/s
Apparent Right ascension
03h 26m 06s
Apparent Declination
-25° 16' 01"
Sunlit
Object is in daylight
Visualization observer readout
Local Sidereal Time
15:31:02
Azimuth
4.412° NNE
Elevation
-75.314°
Doppler factor
1
Orbital elements
Apogee altitude
360.918 km
Perigee altitude
359.123 km
Semi-major axis
6,738.157 km
Eccentricity
0.00013
Inclination
53.1602°
RAAN
225.9987°
Arg. of periapsis
94.3151°
True anomaly
Unknown
Mean anomaly
265.8019°
Eccentric anomaly
Unknown
Mean motion
3.92402 °/min
Orbital period
91.74 mins
BSTAR
-0.0000038981
Loading maneuver chart data...
Loading SW <> Apogee altitude chart data...
Loading historical data...
Loading historical data...
Loading historical data...
Loading historical data...
Loading historical data...
Loading historical data...
Loading historical data...

STARLINK-11136 Visibility forecast

Observer location: undefined°, undefined°

Span
Click to sort rows by Start time (UTC) header in descending order
Start Az.
Max El. time (UTC)
Max El. Az.
Max El.
End time (UTC)
End Az.
4 mins2025-07-06 12:26:00.911Z290.675° WNW2025-07-06 12:28:00.911Z196.332° SSW35.212°2025-07-06 12:30:00.911Z150.597° SSE
|